Flag for Germany Weather past 2 weeks in Dannenberg, Lower Saxony, Germany

Now
53 °F

Overcast.


Feels Like: 52 °F
Forecast: 46 / 62 °F
Wind: 3 mph from Southwest

Location: Marnitz

Current Time: Apr 26, 2015 at 12:53:38 AM

Latest Report: Apr 25, 2015 at 11:00 PM


Visibility: 2 mi

Pressure: 29.72 "Hg

Humidity: 96%

Dew point: 51 °F

Location of DannenbergLocation

Historic Weather in Dannenberg — Graph

°F

Dannenberg temperature yesterday

Maximum temperature yesterday: 66 °F (at 3:00 PM)
Minimum temperature yesterday: 48 °F (at 3:00 AM)
Average temperature yesterday: 56 °F

Past Weeks' High & Low Weather Summary

 TemperatureHumidityPressure
High71 °F (Apr 15, 3:00 PM)100% (Apr 18, 6:00 AM)30.37 "Hg (Apr 18, 6:00 AM)
Low31 °F (Apr 18, 6:00 AM)25% (Apr 21, 1:00 PM)29.69 "Hg (Apr 25, 5:00 PM)
Average50 °F67%30.10 "Hg
* Reported Apr 10 11:00 PM — Apr 25 11:00 PM, Dannenberg, Weather by CustomWeather, © 2015

Note: Actual official high and low records may vary slightly from our data, if they occured in-between our weather recording intervals... More about our weather records

Advertising

Dannenberg weather history for previous 24 hours

 ConditionsComfort  
Time TempWeatherWind HumidityBarometerVisibility
11:00 PM
Sat, Apr 25
53 °FOvercast.3 mph96%29.72 "Hg2 mi
10:00 PM53 °FOvercast.2 mph96%29.72 "Hg2 mi
9:00 PM53 °FOvercast.2 mph95%29.72 "Hg2 mi
8:00 PM53 °FLight rain. Overcast.3 mph95%29.72 "Hg2 mi
7:00 PM56 °FLight rain. Overcast.3 mph92%29.71 "Hg2 mi
6:00 PM59 °FLight rain. Overcast.3 mph78%29.70 "Hg4 mi
5:00 PM62 °FLight rain. Overcast.2 mph71%29.69 "Hg4 mi
4:00 PM60 °FOvercast.5 mph75%29.70 "Hg6 mi
3:00 PM66 °FPartly sunny.3 mph56%29.70 "Hg11 mi
2:00 PM64 °FOvercast.2 mph59%29.71 "Hg9 mi
1:00 PM62 °FOvercast.2 mph64%29.73 "Hg8 mi
12:00 PM59 °FPartly sunny.1 mph69%29.74 "Hg6 mi
11:00 AM54 °FLight rain. Overcast.2 mph85%29.75 "Hg4 mi
10:00 AM53 °FLight rain. Fog.6 mph86%29.76 "Hg3 mi
9:00 AM57 °FOvercast.5 mph55%29.74 "Hg9 mi
8:00 AM56 °FOvercast.5 mph57%29.74 "Hg7 mi
7:00 AM55 °FPartly sunny.5 mph57%29.74 "Hg6 mi
6:00 AM53 °FOvercast.3 mph62%29.74 "Hg5 mi
5:00 AM51 °FClear.3 mph65%29.76 "Hg4 mi
3:00 AM48 °FPassing clouds.3 mph71%29.78 "Hg4 mi
1:00 AM50 °FClear.3 mph64%29.80 "Hg6 mi
12:00 AM48 °FClear.2 mph70%29.81 "Hg5 mi
Weather by CustomWeather, © 2015

See weather overviewHow to use our weather pages